Location: Badlands Tank
(34.7185°N, 107.0376°W)
Time: 07:01:45
(UTC+00:00)

Cosmos 841 Rocket - Pass Details

Date: 23 November 2025
Orbit: 742 x 768 km, 74.0° (Epoch: 08 December)

Event Time Altitude Azimuth Distance (km) Brightness Sun altitude
Rises 02:30:56 0° 321° (NW) 3,239 7.2 -30.9°
Reaches altitude 10° 02:34:13 10° 300° (WNW) 2,306 6.6 -31.5°
Maximum altitude 02:37:15 16° 265° (W) 1,931 6.3 -32.2°
Drops below altitude 10° 02:40:16 10° 229° (SW) 2,292 6.5 -32.8°
Sets 02:43:32 0° 207° (SSW) 3,208 7.1 -33.4°
